Voltar ao catálogo

NOAA 16 DEB

AtivoPO
NORAD 41712·DEBRIS·🇺🇸 United States

Lançado Sep 21, 2000 de Vandenberg Space Force Base

Loading…

Próximas Passagens (próximas 24 horas)

TLE

AtualizadoSource: Space-Track

Época: Sep 14, 2026, 05:28 UTC

1 41712U 00055PS  26257.22807839  .00013911  00000-0  24872-2 0  9996
2 41712  98.8345  45.6863 0025507 159.0394 201.1859 14.66799646540188

Acompanhe NOAA 16 DEB em tempo real com AllMySat

Download on the App Store